Export;EXP-2023-01 (20230707 07:52);;;StationsCode;NL49551;NL49553
Periode;20120101 00:00 - 20130101 00:00;;;BeheerderMeetStation;GGD A'dam;GGD A'dam
Bron;https://data.rivm.nl/data/luchtmeetnet;;;StationsNaam;IJmuiden-Kanaaldijk;Wijk aan Zee-Burgemeester Rothestraat
Beschrijving data;https://data.rivm.nl/data/luchtmeetnet/readme.pdf;;;Latitude,Longitude;(52.463039,4.601842);(52.493992,4.601986)
Accreditatienummer;https://www.rva.nl/alle-geaccrediteerden/;;;StationsGebied;stad;stad
;;;;StationsType;industrie;industrie
;;;;Meetprincipe;Ultraviolet fluorescentie (UV-F);Ultraviolet fluorescentie (UV-F)
;;;;Meetopstelling;H2S metingen met een Thermo monitor;H2S metingen met een Thermo monitor
;;;;Accreditatienummer;nvt;nvt
Component;Bep.periode;Eenheid; Begindatumtijd;Einddatumtijd;NL49551;NL49553
H2S;uur;�g/m�;20120101 00:00;20120101 01:00;1;6
H2S;uur;�g/m�;20120101 01:00;20120101 02:00;0;5
H2S;uur;�g/m�;20120101 02:00;20120101 03:00;0;5
H2S;uur;�g/m�;20120101 03:00;20120101 04:00;0;2
H2S;uur;�g/m�;20120101 04:00;20120101 05:00;;
H2S;uur;�g/m�;20120101 05:00;20120101 06:00;0;0
H2S;uur;�g/m�;20120101 06:00;20120101 07:00;0;0
H2S;uur;�g/m�;20120101 07:00;20120101 08:00;0;0
H2S;uur;�g/m�;20120101 08:00;20120101 09:00;0;0
H2S;uur;�g/m�;20120101 09:00;20120101 10:00;0;0
H2S;uur;�g/m�;20120101 10:00;20120101 11:00;0;1
H2S;uur;�g/m�;20120101 11:00;20120101 12:00;0;3
H2S;uur;�g/m�;20120101 12:00;20120101 13:00;0;3
H2S;uur;�g/m�;20120101 13:00;20120101 14:00;0;1
H2S;uur;�g/m�;20120101 14:00;20120101 15:00;0;2
H2S;uur;�g/m�;20120101 15:00;20120101 16:00;0;5
H2S;uur;�g/m�;20120101 16:00;20120101 17:00;0;7
H2S;uur;�g/m�;20120101 17:00;20120101 18:00;0;8
H2S;uur;�g/m�;20120101 18:00;20120101 19:00;0;6
H2S;uur;�g/m�;20120101 19:00;20120101 20:00;0;5
H2S;uur;�g/m�;20120101 20:00;20120101 21:00;0;1
H2S;uur;�g/m�;20120101 21:00;20120101 22:00;0;0
H2S;uur;�g/m�;20120101 22:00;20120101 23:00;0;0
H2S;uur;�g/m�;20120101 23:00;20120102 00:00;0;0
H2S;uur;�g/m�;20120102 00:00;20120102 01:00;0;0
H2S;uur;�g/m�;20120102 01:00;20120102 02:00;0;0
H2S;uur;�g/m�;20120102 02:00;20120102 03:00;0;0
H2S;uur;�g/m�;20120102 03:00;20120102 04:00;0;0
H2S;uur;�g/m�;20120102 04:00;20120102 05:00;0;0
H2S;uur;�g/m�;20120102 05:00;20120102 06:00;0;0
H2S;uur;�g/m�;20120102 06:00;20120102 07:00;0;0
H2S;uur;�g/m�;20120102 07:00;20120102 08:00;0;0
H2S;uur;�g/m�;20120102 08:00;20120102 09:00;0;0
H2S;uur;�g/m�;20120102 09:00;20120102 10:00;0;0
H2S;uur;�g/m�;20120102 10:00;20120102 11:00;0;0
H2S;uur;�g/m�;20120102 11:00;20120102 12:00;0;0
H2S;uur;�g/m�;20120102 12:00;20120102 13:00;0;0
H2S;uur;�g/m�;20120102 13:00;20120102 14:00;0;0
H2S;uur;�g/m�;20120102 14:00;20120102 15:00;0;0
H2S;uur;�g/m�;20120102 15:00;20120102 16:00;0;0
H2S;uur;�g/m�;20120102 16:00;20120102 17:00;0;0
H2S;uur;�g/m�;20120102 17:00;20120102 18:00;0;0
H2S;uur;�g/m�;20120102 18:00;20120102 19:00;0;0
H2S;uur;�g/m�;20120102 19:00;20120102 20:00;0;0
H2S;uur;�g/m�;20120102 20:00;20120102 21:00;0;0
H2S;uur;�g/m�;20120102 21:00;20120102 22:00;0;0
H2S;uur;�g/m�;20120102 22:00;20120102 23:00;0;0
H2S;uur;�g/m�;20120102 23:00;20120103 00:00;0;0
H2S;uur;�g/m�;20120103 00:00;20120103 01:00;0;1
H2S;uur;�g/m�;20120103 01:00;20120103 02:00;0;3
H2S;uur;�g/m�;20120103 02:00;20120103 03:00;0;5
H2S;uur;�g/m�;20120103 03:00;20120103 04:00;0;2
H2S;uur;�g/m�;20120103 04:00;20120103 05:00;0;4
H2S;uur;�g/m�;20120103 05:00;20120103 06:00;;
H2S;uur;�g/m�;20120103 06:00;20120103 07:00;0;6
H2S;uur;�g/m�;20120103 07:00;20120103 08:00;0;2
H2S;uur;�g/m�;20120103 08:00;20120103 09:00;0;3
H2S;uur;�g/m�;20120103 09:00;20120103 10:00;0;4
H2S;uur;�g/m�;20120103 10:00;20120103 11:00;0;7
H2S;uur;�g/m�;20120103 11:00;20120103 12:00;0;9
H2S;uur;�g/m�;20120103 12:00;20120103 13:00;0;9
H2S;uur;�g/m�;20120103 13:00;20120103 14:00;0;5
H2S;uur;�g/m�;20120103 14:00;20120103 15:00;0;6
H2S;uur;�g/m�;20120103 15:00;20120103 16:00;0;1
H2S;uur;�g/m�;20120103 16:00;20120103 17:00;0;0
H2S;uur;�g/m�;20120103 17:00;20120103 18:00;0;0
H2S;uur;�g/m�;20120103 18:00;20120103 19:00;0;0
H2S;uur;�g/m�;20120103 19:00;20120103 20:00;0;0
H2S;uur;�g/m�;20120103 20:00;20120103 21:00;0;0
H2S;uur;�g/m�;20120103 21:00;20120103 22:00;0;0
H2S;uur;�g/m�;20120103 22:00;20120103 23:00;0;0
H2S;uur;�g/m�;20120103 23:00;20120104 00:00;0;0
H2S;uur;�g/m�;20120104 00:00;20120104 01:00;0;0
H2S;uur;�g/m�;20120104 01:00;20120104 02:00;0;0
H2S;uur;�g/m�;20120104 02:00;20120104 03:00;0;0
H2S;uur;�g/m�;20120104 03:00;20120104 04:00;0;0
H2S;uur;�g/m�;20120104 04:00;20120104 05:00;0;0
H2S;uur;�g/m�;20120104 05:00;20120104 06:00;0;0
H2S;uur;�g/m�;20120104 06:00;20120104 07:00;0;0
H2S;uur;�g/m�;20120104 07:00;20120104 08:00;0;0
H2S;uur;�g/m�;20120104 08:00;20120104 09:00;0;0
H2S;uur;�g/m�;20120104 09:00;20120104 10:00;0;0
H2S;uur;�g/m�;20120104 10:00;20120104 11:00;0;0
H2S;uur;�g/m�;20120104 11:00;20120104 12:00;0;0
H2S;uur;�g/m�;20120104 12:00;20120104 13:00;0;0
H2S;uur;�g/m�;20120104 13:00;20120104 14:00;0;0
H2S;uur;�g/m�;20120104 14:00;20120104 15:00;0;0
H2S;uur;�g/m�;20120104 15:00;20120104 16:00;0;0
H2S;uur;�g/m�;20120104 16:00;20120104 17:00;0;0
H2S;uur;�g/m�;20120104 17:00;20120104 18:00;0;0
H2S;uur;�g/m�;20120104 18:00;20120104 19:00;0;0
H2S;uur;�g/m�;20120104 19:00;20120104 20:00;0;0
H2S;uur;�g/m�;20120104 20:00;20120104 21:00;0;0
H2S;uur;�g/m�;20120104 21:00;20120104 22:00;0;0
H2S;uur;�g/m�;20120104 22:00;20120104 23:00;0;0
H2S;uur;�g/m�;20120104 23:00;20120105 00:00;0;0
H2S;uur;�g/m�;20120105 00:00;20120105 01:00;0;0
H2S;uur;�g/m�;20120105 01:00;20120105 02:00;0;0
H2S;uur;�g/m�;20120105 02:00;20120105 03:00;0;0
H2S;uur;�g/m�;20120105 03:00;20120105 04:00;0;0
H2S;uur;�g/m�;20120105 04:00;20120105 05:00;0;0
H2S;uur;�g/m�;20120105 05:00;20120105 06:00;0;0
H2S;uur;�g/m�;20120105 06:00;20120105 07:00;;
H2S;uur;�g/m�;20120105 07:00;20120105 08:00;0;1
H2S;uur;�g/m�;20120105 08:00;20120105 09:00;0;0
H2S;uur;�g/m�;20120105 09:00;20120105 10:00;0;0
H2S;uur;�g/m�;20120105 10:00;20120105 11:00;1;1
H2S;uur;�g/m�;20120105 11:00;20120105 12:00;0;0
H2S;uur;�g/m�;20120105 12:00;20120105 13:00;0;1
H2S;uur;�g/m�;20120105 13:00;20120105 14:00;0;0
H2S;uur;�g/m�;20120105 14:00;20120105 15:00;0;1
H2S;uur;�g/m�;20120105 15:00;20120105 16:00;3;0
H2S;uur;�g/m�;20120105 16:00;20120105 17:00;0;0
H2S;uur;�g/m�;20120105 17:00;20120105 18:00;5;0
H2S;uur;�g/m�;20120105 18:00;20120105 19:00;8;0
H2S;uur;�g/m�;20120105 19:00;20120105 20:00;5;0
H2S;uur;�g/m�;20120105 20:00;20120105 21:00;3;0
H2S;uur;�g/m�;20120105 21:00;20120105 22:00;5;0
H2S;uur;�g/m�;20120105 22:00;20120105 23:00;4;0
H2S;uur;�g/m�;20120105 23:00;20120106 00:00;6;0
H2S;uur;�g/m�;20120106 00:00;20120106 01:00;5;0
H2S;uur;�g/m�;20120106 01:00;20120106 02:00;5;0
H2S;uur;�g/m�;20120106 02:00;20120106 03:00;4;0
H2S;uur;�g/m�;20120106 03:00;20120106 04:00;6;0
H2S;uur;�g/m�;20120106 04:00;20120106 05:00;6;1
H2S;uur;�g/m�;20120106 05:00;20120106 06:00;5;0
H2S;uur;�g/m�;20120106 06:00;20120106 07:00;5;0
H2S;uur;�g/m�;20120106 07:00;20120106 08:00;12;0
H2S;uur;�g/m�;20120106 08:00;20120106 09:00;10;0
H2S;uur;�g/m�;20120106 09:00;20120106 10:00;6;0
H2S;uur;�g/m�;20120106 10:00;20120106 11:00;9;0
H2S;uur;�g/m�;20120106 11:00;20120106 12:00;11;0
H2S;uur;�g/m�;20120106 12:00;20120106 13:00;8;1
H2S;uur;�g/m�;20120106 13:00;20120106 14:00;3;1
H2S;uur;�g/m�;20120106 14:00;20120106 15:00;1;0
H2S;uur;�g/m�;20120106 15:00;20120106 16:00;1;0
H2S;uur;�g/m�;20120106 16:00;20120106 17:00;1;0
H2S;uur;�g/m�;20120106 17:00;20120106 18:00;1;0
H2S;uur;�g/m�;20120106 18:00;20120106 19:00;1;1
H2S;uur;�g/m�;20120106 19:00;20120106 20:00;0;1
H2S;uur;�g/m�;20120106 20:00;20120106 21:00;1;1
H2S;uur;�g/m�;20120106 21:00;20120106 22:00;1;1
H2S;uur;�g/m�;20120106 22:00;20120106 23:00;1;1
H2S;uur;�g/m�;20120106 23:00;20120107 00:00;1;1
H2S;uur;�g/m�;20120107 00:00;20120107 01:00;1;1
H2S;uur;�g/m�;20120107 01:00;20120107 02:00;1;1
H2S;uur;�g/m�;20120107 02:00;20120107 03:00;0;0
H2S;uur;�g/m�;20120107 03:00;20120107 04:00;0;1
H2S;uur;�g/m�;20120107 04:00;20120107 05:00;0;1
H2S;uur;�g/m�;20120107 05:00;20120107 06:00;0;0
H2S;uur;�g/m�;20120107 06:00;20120107 07:00;0;0
H2S;uur;�g/m�;20120107 07:00;20120107 08:00;;
H2S;uur;�g/m�;20120107 08:00;20120107 09:00;0;0
H2S;uur;�g/m�;20120107 09:00;20120107 10:00;0;1
H2S;uur;�g/m�;20120107 10:00;20120107 11:00;0;1
H2S;uur;�g/m�;20120107 11:00;20120107 12:00;0;1
H2S;uur;�g/m�;20120107 12:00;20120107 13:00;0;0
H2S;uur;�g/m�;20120107 13:00;20120107 14:00;0;0
H2S;uur;�g/m�;20120107 14:00;20120107 15:00;0;1
H2S;uur;�g/m�;20120107 15:00;20120107 16:00;0;0
H2S;uur;�g/m�;20120107 16:00;20120107 17:00;0;0
H2S;uur;�g/m�;20120107 17:00;20120107 18:00;0;1
H2S;uur;�g/m�;20120107 18:00;20120107 19:00;0;1
H2S;uur;�g/m�;20120107 19:00;20120107 20:00;0;0
H2S;uur;�g/m�;20120107 20:00;20120107 21:00;0;0
H2S;uur;�g/m�;20120107 21:00;20120107 22:00;0;0
H2S;uur;�g/m�;20120107 22:00;20120107 23:00;0;0
H2S;uur;�g/m�;20120107 23:00;20120108 00:00;0;0
H2S;uur;�g/m�;20120108 00:00;20120108 01:00;0;1
H2S;uur;�g/m�;20120108 01:00;20120108 02:00;0;0
H2S;uur;�g/m�;20120108 02:00;20120108 03:00;0;0
H2S;uur;�g/m�;20120108 03:00;20120108 04:00;0;0
H2S;uur;�g/m�;20120108 04:00;20120108 05:00;0;0
H2S;uur;�g/m�;20120108 05:00;20120108 06:00;0;0
H2S;uur;�g/m�;20120108 06:00;20120108 07:00;0;0
H2S;uur;�g/m�;20120108 07:00;20120108 08:00;0;0
H2S;uur;�g/m�;20120108 08:00;20120108 09:00;0;0
H2S;uur;�g/m�;20120108 09:00;20120108 10:00;0;0
H2S;uur;�g/m�;20120108 10:00;20120108 11:00;0;1
H2S;uur;�g/m�;20120108 11:00;20120108 12:00;0;0
H2S;uur;�g/m�;20120108 12:00;20120108 13:00;0;0
H2S;uur;�g/m�;20120108 13:00;20120108 14:00;0;0
H2S;uur;�g/m�;20120108 14:00;20120108 15:00;0;0
H2S;uur;�g/m�;20120108 15:00;20120108 16:00;1;0
H2S;uur;�g/m�;20120108 16:00;20120108 17:00;0;0
H2S;uur;�g/m�;20120108 17:00;20120108 18:00;0;1
H2S;uur;�g/m�;20120108 18:00;20120108 19:00;0;0
H2S;uur;�g/m�;20120108 19:00;20120108 20:00;0;0
H2S;uur;�g/m�;20120108 20:00;20120108 21:00;0;0
H2S;uur;�g/m�;20120108 21:00;20120108 22:00;0;0
H2S;uur;�g/m�;20120108 22:00;20120108 23:00;0;0
H2S;uur;�g/m�;20120108 23:00;20120109 00:00;0;1
H2S;uur;�g/m�;20120109 00:00;20120109 01:00;0;1
H2S;uur;�g/m�;20120109 01:00;20120109 02:00;0;1
H2S;uur;�g/m�;20120109 02:00;20120109 03:00;0;1
H2S;uur;�g/m�;20120109 03:00;20120109 04:00;0;1
H2S;uur;�g/m�;20120109 04:00;20120109 05:00;0;1
H2S;uur;�g/m�;20120109 05:00;20120109 06:00;0;0
H2S;uur;�g/m�;20120109 06:00;20120109 07:00;0;0
H2S;uur;�g/m�;20120109 07:00;20120109 08:00;0;0
H2S;uur;�g/m�;20120109 08:00;20120109 09:00;;
H2S;uur;�g/m�;20120109 09:00;20120109 10:00;0;0
H2S;uur;�g/m�;20120109 10:00;20120109 11:00;0;0
H2S;uur;�g/m�;20120109 11:00;20120109 12:00;0;0
H2S;uur;�g/m�;20120109 12:00;20120109 13:00;0;0
H2S;uur;�g/m�;20120109 13:00;20120109 14:00;0;0
H2S;uur;�g/m�;20120109 14:00;20120109 15:00;0;0
H2S;uur;�g/m�;20120109 15:00;20120109 16:00;0;0
H2S;uur;�g/m�;20120109 16:00;20120109 17:00;0;0
H2S;uur;�g/m�;20120109 17:00;20120109 18:00;0;0
H2S;uur;�g/m�;20120109 18:00;20120109 19:00;0;0
H2S;uur;�g/m�;20120109 19:00;20120109 20:00;0;0
H2S;uur;�g/m�;20120109 20:00;20120109 21:00;0;0
H2S;uur;�g/m�;20120109 21:00;20120109 22:00;0;0
H2S;uur;�g/m�;20120109 22:00;20120109 23:00;0;0
H2S;uur;�g/m�;20120109 23:00;20120110 00:00;0;0
H2S;uur;�g/m�;20120110 00:00;20120110 01:00;0;0
H2S;uur;�g/m�;20120110 01:00;20120110 02:00;0;0
H2S;uur;�g/m�;20120110 02:00;20120110 03:00;0;0
H2S;uur;�g/m�;20120110 03:00;20120110 04:00;0;0
H2S;uur;�g/m�;20120110 04:00;20120110 05:00;0;0
H2S;uur;�g/m�;20120110 05:00;20120110 06:00;0;0
H2S;uur;�g/m�;20120110 06:00;20120110 07:00;0;0
H2S;uur;�g/m�;20120110 07:00;20120110 08:00;0;0
H2S;uur;�g/m�;20120110 08:00;20120110 09:00;0;0
H2S;uur;�g/m�;20120110 09:00;20120110 10:00;0;0
H2S;uur;�g/m�;20120110 10:00;20120110 11:00;0;0
H2S;uur;�g/m�;20120110 11:00;20120110 12:00;0;0
H2S;uur;�g/m�;20120110 12:00;20120110 13:00;0;0
H2S;uur;�g/m�;20120110 13:00;20120110 14:00;0;2
H2S;uur;�g/m�;20120110 14:00;20120110 15:00;0;0
H2S;uur;�g/m�;20120110 15:00;20120110 16:00;0;1
H2S;uur;�g/m�;20120110 16:00;20120110 17:00;0;0
H2S;uur;�g/m�;20120110 17:00;20120110 18:00;0;0
H2S;uur;�g/m�;20120110 18:00;20120110 19:00;0;0
H2S;uur;�g/m�;20120110 19:00;20120110 20:00;0;0
H2S;uur;�g/m�;20120110 20:00;20120110 21:00;0;0
H2S;uur;�g/m�;20120110 21:00;20120110 22:00;0;0
H2S;uur;�g/m�;20120110 22:00;20120110 23:00;0;0
H2S;uur;�g/m�;20120110 23:00;20120111 00:00;0;0
H2S;uur;�g/m�;20120111 00:00;20120111 01:00;0;0
H2S;uur;�g/m�;20120111 01:00;20120111 02:00;0;0
H2S;uur;�g/m�;20120111 02:00;20120111 03:00;0;0
H2S;uur;�g/m�;20120111 03:00;20120111 04:00;0;0
H2S;uur;�g/m�;20120111 04:00;20120111 05:00;0;0
H2S;uur;�g/m�;20120111 05:00;20120111 06:00;0;0
H2S;uur;�g/m�;20120111 06:00;20120111 07:00;0;0
H2S;uur;�g/m�;20120111 07:00;20120111 08:00;0;0
H2S;uur;�g/m�;20120111 08:00;20120111 09:00;0;0
H2S;uur;�g/m�;20120111 09:00;20120111 10:00;;
H2S;uur;�g/m�;20120111 10:00;20120111 11:00;0;0
H2S;uur;�g/m�;20120111 11:00;20120111 12:00;0;0
H2S;uur;�g/m�;20120111 12:00;20120111 13:00;0;0
H2S;uur;�g/m�;20120111 13:00;20120111 14:00;0;0
H2S;uur;�g/m�;20120111 14:00;20120111 15:00;0;0
H2S;uur;�g/m�;20120111 15:00;20120111 16:00;0;0
H2S;uur;�g/m�;20120111 16:00;20120111 17:00;0;0
H2S;uur;�g/m�;20120111 17:00;20120111 18:00;0;1
H2S;uur;�g/m�;20120111 18:00;20120111 19:00;0;0
H2S;uur;�g/m�;20120111 19:00;20120111 20:00;0;0
H2S;uur;�g/m�;20120111 20:00;20120111 21:00;0;0
H2S;uur;�g/m�;20120111 21:00;20120111 22:00;0;1
H2S;uur;�g/m�;20120111 22:00;20120111 23:00;0;1
H2S;uur;�g/m�;20120111 23:00;20120112 00:00;0;1
H2S;uur;�g/m�;20120112 00:00;20120112 01:00;0;1
H2S;uur;�g/m�;20120112 01:00;20120112 02:00;0;0
H2S;uur;�g/m�;20120112 02:00;20120112 03:00;0;0
H2S;uur;�g/m�;20120112 03:00;20120112 04:00;0;0
H2S;uur;�g/m�;20120112 04:00;20120112 05:00;0;0
H2S;uur;�g/m�;20120112 05:00;20120112 06:00;0;0
H2S;uur;�g/m�;20120112 06:00;20120112 07:00;0;0
H2S;uur;�g/m�;20120112 07:00;20120112 08:00;0;1
H2S;uur;�g/m�;20120112 08:00;20120112 09:00;0;0
H2S;uur;�g/m�;20120112 09:00;20120112 10:00;0;0
H2S;uur;�g/m�;20120112 10:00;20120112 11:00;0;0
H2S;uur;�g/m�;20120112 11:00;20120112 12:00;0;0
H2S;uur;�g/m�;20120112 12:00;20120112 13:00;0;0
H2S;uur;�g/m�;20120112 13:00;20120112 14:00;0;0
H2S;uur;�g/m�;20120112 14:00;20120112 15:00;0;0
H2S;uur;�g/m�;20120112 15:00;20120112 16:00;2;0
H2S;uur;�g/m�;20120112 16:00;20120112 17:00;0;0
H2S;uur;�g/m�;20120112 17:00;20120112 18:00;1;0
H2S;uur;�g/m�;20120112 18:00;20120112 19:00;1;0
H2S;uur;�g/m�;20120112 19:00;20120112 20:00;0;0
H2S;uur;�g/m�;20120112 20:00;20120112 21:00;0;0
H2S;uur;�g/m�;20120112 21:00;20120112 22:00;0;0
H2S;uur;�g/m�;20120112 22:00;20120112 23:00;0;0
H2S;uur;�g/m�;20120112 23:00;20120113 00:00;0;0
H2S;uur;�g/m�;20120113 00:00;20120113 01:00;0;0
H2S;uur;�g/m�;20120113 01:00;20120113 02:00;0;0
H2S;uur;�g/m�;20120113 02:00;20120113 03:00;0;0
H2S;uur;�g/m�;20120113 03:00;20120113 04:00;0;0
H2S;uur;�g/m�;20120113 04:00;20120113 05:00;2;0
H2S;uur;�g/m�;20120113 05:00;20120113 06:00;5;0
H2S;uur;�g/m�;20120113 06:00;20120113 07:00;5;0
H2S;uur;�g/m�;20120113 07:00;20120113 08:00;6;0
H2S;uur;�g/m�;20120113 08:00;20120113 09:00;7;0
H2S;uur;�g/m�;20120113 09:00;20120113 10:00;2;0
H2S;uur;�g/m�;20120113 10:00;20120113 11:00;;
H2S;uur;�g/m�;20120113 11:00;20120113 12:00;6;0
H2S;uur;�g/m�;20120113 12:00;20120113 13:00;3;0
H2S;uur;�g/m�;20120113 13:00;20120113 14:00;8;0
H2S;uur;�g/m�;20120113 14:00;20120113 15:00;4;0
H2S;uur;�g/m�;20120113 15:00;20120113 16:00;6;0
H2S;uur;�g/m�;20120113 16:00;20120113 17:00;5;0
H2S;uur;�g/m�;20120113 17:00;20120113 18:00;7;0
H2S;uur;�g/m�;20120113 18:00;20120113 19:00;6;0
H2S;uur;�g/m�;20120113 19:00;20120113 20:00;9;0
H2S;uur;�g/m�;20120113 20:00;20120113 21:00;6;0
H2S;uur;�g/m�;20120113 21:00;20120113 22:00;4;0
H2S;uur;�g/m�;20120113 22:00;20120113 23:00;3;0
H2S;uur;�g/m�;20120113 23:00;20120114 00:00;5;0
H2S;uur;�g/m�;20120114 00:00;20120114 01:00;4;0
H2S;uur;�g/m�;20120114 01:00;20120114 02:00;3;0
H2S;uur;�g/m�;20120114 02:00;20120114 03:00;3;0
H2S;uur;�g/m�;20120114 03:00;20120114 04:00;8;0
H2S;uur;�g/m�;20120114 04:00;20120114 05:00;3;0
H2S;uur;�g/m�;20120114 05:00;20120114 06:00;3;0
H2S;uur;�g/m�;20120114 06:00;20120114 07:00;6;0
H2S;uur;�g/m�;20120114 07:00;20120114 08:00;7;0
H2S;uur;�g/m�;20120114 08:00;20120114 09:00;8;0
H2S;uur;�g/m�;20120114 09:00;20120114 10:00;3;0
H2S;uur;�g/m�;20120114 10:00;20120114 11:00;1;0
H2S;uur;�g/m�;20120114 11:00;20120114 12:00;1;0
H2S;uur;�g/m�;20120114 12:00;20120114 13:00;3;0
H2S;uur;�g/m�;20120114 13:00;20120114 14:00;1;0
H2S;uur;�g/m�;20120114 14:00;20120114 15:00;3;0
H2S;uur;�g/m�;20120114 15:00;20120114 16:00;2;0
H2S;uur;�g/m�;20120114 16:00;20120114 17:00;0;0
H2S;uur;�g/m�;20120114 17:00;20120114 18:00;1;0
H2S;uur;�g/m�;20120114 18:00;20120114 19:00;0;0
H2S;uur;�g/m�;20120114 19:00;20120114 20:00;0;0
H2S;uur;�g/m�;20120114 20:00;20120114 21:00;0;0
H2S;uur;�g/m�;20120114 21:00;20120114 22:00;0;0
H2S;uur;�g/m�;20120114 22:00;20120114 23:00;0;0
H2S;uur;�g/m�;20120114 23:00;20120115 00:00;0;0
H2S;uur;�g/m�;20120115 00:00;20120115 01:00;0;0
H2S;uur;�g/m�;20120115 01:00;20120115 02:00;0;0
H2S;uur;�g/m�;20120115 02:00;20120115 03:00;0;0
H2S;uur;�g/m�;20120115 03:00;20120115 04:00;0;0
H2S;uur;�g/m�;20120115 04:00;20120115 05:00;0;0
H2S;uur;�g/m�;20120115 05:00;20120115 06:00;0;0
H2S;uur;�g/m�;20120115 06:00;20120115 07:00;0;0
H2S;uur;�g/m�;20120115 07:00;20120115 08:00;0;0
H2S;uur;�g/m�;20120115 08:00;20120115 09:00;0;0
H2S;uur;�g/m�;20120115 09:00;20120115 10:00;0;0
H2S;uur;�g/m�;20120115 10:00;20120115 11:00;0;0
H2S;uur;�g/m�;20120115 11:00;20120115 12:00;;
H2S;uur;�g/m�;20120115 12:00;20120115 13:00;0;0
H2S;uur;�g/m�;20120115 13:00;20120115 14:00;0;0
H2S;uur;�g/m�;20120115 14:00;20120115 15:00;0;0
H2S;uur;�g/m�;20120115 15:00;20120115 16:00;0;0
H2S;uur;�g/m�;20120115 16:00;20120115 17:00;0;0
H2S;uur;�g/m�;20120115 17:00;20120115 18:00;0;0
H2S;uur;�g/m�;20120115 18:00;20120115 19:00;1;0
H2S;uur;�g/m�;20120115 19:00;20120115 20:00;1;0
H2S;uur;�g/m�;20120115 20:00;20120115 21:00;1;0
H2S;uur;�g/m�;20120115 21:00;20120115 22:00;0;0
H2S;uur;�g/m�;20120115 22:00;20120115 23:00;0;0
H2S;uur;�g/m�;20120115 23:00;20120116 00:00;0;0
H2S;uur;�g/m�;20120116 00:00;20120116 01:00;1;0
H2S;uur;�g/m�;20120116 01:00;20120116 02:00;0;0
H2S;uur;�g/m�;20120116 02:00;20120116 03:00;0;0
H2S;uur;�g/m�;20120116 03:00;20120116 04:00;0;0
H2S;uur;�g/m�;20120116 04:00;20120116 05:00;0;0
H2S;uur;�g/m�;20120116 05:00;20120116 06:00;0;0
H2S;uur;�g/m�;20120116 06:00;20120116 07:00;0;0
H2S;uur;�g/m�;20120116 07:00;20120116 08:00;0;0
H2S;uur;�g/m�;20120116 08:00;20120116 09:00;1;0
H2S;uur;�g/m�;20120116 09:00;20120116 10:00;1;0
H2S;uur;�g/m�;20120116 10:00;20120116 11:00;1;0
H2S;uur;�g/m�;20120116 11:00;20120116 12:00;1;0
H2S;uur;�g/m�;20120116 12:00;20120116 13:00;1;0
H2S;uur;�g/m�;20120116 13:00;20120116 14:00;1;0
H2S;uur;�g/m�;20120116 14:00;20120116 15:00;1;0
H2S;uur;�g/m�;20120116 15:00;20120116 16:00;1;0
H2S;uur;�g/m�;20120116 16:00;20120116 17:00;1;0
H2S;uur;�g/m�;20120116 17:00;20120116 18:00;1;0
H2S;uur;�g/m�;20120116 18:00;20120116 19:00;1;0
H2S;uur;�g/m�;20120116 19:00;20120116 20:00;1;0
H2S;uur;�g/m�;20120116 20:00;20120116 21:00;1;0
H2S;uur;�g/m�;20120116 21:00;20120116 22:00;1;0
H2S;uur;�g/m�;20120116 22:00;20120116 23:00;1;0
H2S;uur;�g/m�;20120116 23:00;20120117 00:00;1;0
H2S;uur;�g/m�;20120117 00:00;20120117 01:00;2;0
H2S;uur;�g/m�;20120117 01:00;20120117 02:00;1;1
H2S;uur;�g/m�;20120117 02:00;20120117 03:00;2;1
H2S;uur;�g/m�;20120117 03:00;20120117 04:00;2;0
H2S;uur;�g/m�;20120117 04:00;20120117 05:00;2;0
H2S;uur;�g/m�;20120117 05:00;20120117 06:00;1;0
H2S;uur;�g/m�;20120117 06:00;20120117 07:00;2;0
H2S;uur;�g/m�;20120117 07:00;20120117 08:00;2;0
H2S;uur;�g/m�;20120117 08:00;20120117 09:00;2;0
H2S;uur;�g/m�;20120117 09:00;20120117 10:00;1;0
H2S;uur;�g/m�;20120117 10:00;20120117 11:00;2;0
H2S;uur;�g/m�;20120117 11:00;20120117 12:00;2;6
H2S;uur;�g/m�;20120117 12:00;20120117 13:00;;
H2S;uur;�g/m�;20120117 13:00;20120117 14:00;1;1
H2S;uur;�g/m�;20120117 14:00;20120117 15:00;0;0
H2S;uur;�g/m�;20120117 15:00;20120117 16:00;0;0
H2S;uur;�g/m�;20120117 16:00;20120117 17:00;1;6
H2S;uur;�g/m�;20120117 17:00;20120117 18:00;1;11
H2S;uur;�g/m�;20120117 18:00;20120117 19:00;1;2
H2S;uur;�g/m�;20120117 19:00;20120117 20:00;1;4
H2S;uur;�g/m�;20120117 20:00;20120117 21:00;1;20
H2S;uur;�g/m�;20120117 21:00;20120117 22:00;1;5
H2S;uur;�g/m�;20120117 22:00;20120117 23:00;1;25
H2S;uur;�g/m�;20120117 23:00;20120118 00:00;1;26
H2S;uur;�g/m�;20120118 00:00;20120118 01:00;1;11
H2S;uur;�g/m�;20120118 01:00;20120118 02:00;1;7
H2S;uur;�g/m�;20120118 02:00;20120118 03:00;1;13
H2S;uur;�g/m�;20120118 03:00;20120118 04:00;1;19
H2S;uur;�g/m�;20120118 04:00;20120118 05:00;1;14
H2S;uur;�g/m�;20120118 05:00;20120118 06:00;1;20
H2S;uur;�g/m�;20120118 06:00;20120118 07:00;1;19
H2S;uur;�g/m�;20120118 07:00;20120118 08:00;1;13
H2S;uur;�g/m�;20120118 08:00;20120118 09:00;1;14
H2S;uur;�g/m�;20120118 09:00;20120118 10:00;1;12
H2S;uur;�g/m�;20120118 10:00;20120118 11:00;1;7
H2S;uur;�g/m�;20120118 11:00;20120118 12:00;1;13
H2S;uur;�g/m�;20120118 12:00;20120118 13:00;1;5
H2S;uur;�g/m�;20120118 13:00;20120118 14:00;1;7
H2S;uur;�g/m�;20120118 14:00;20120118 15:00;0;9
H2S;uur;�g/m�;20120118 15:00;20120118 16:00;0;9
H2S;uur;�g/m�;20120118 16:00;20120118 17:00;0;4
H2S;uur;�g/m�;20120118 17:00;20120118 18:00;0;0
H2S;uur;�g/m�;20120118 18:00;20120118 19:00;0;0
H2S;uur;�g/m�;20120118 19:00;20120118 20:00;0;0
H2S;uur;�g/m�;20120118 20:00;20120118 21:00;0;0
H2S;uur;�g/m�;20120118 21:00;20120118 22:00;0;0
H2S;uur;�g/m�;20120118 22:00;20120118 23:00;0;0
H2S;uur;�g/m�;20120118 23:00;20120119 00:00;0;0
H2S;uur;�g/m�;20120119 00:00;20120119 01:00;0;0
H2S;uur;�g/m�;20120119 01:00;20120119 02:00;0;0
H2S;uur;�g/m�;20120119 02:00;20120119 03:00;0;0
H2S;uur;�g/m�;20120119 03:00;20120119 04:00;0;0
H2S;uur;�g/m�;20120119 04:00;20120119 05:00;0;0
H2S;uur;�g/m�;20120119 05:00;20120119 06:00;0;0
H2S;uur;�g/m�;20120119 06:00;20120119 07:00;0;0
H2S;uur;�g/m�;20120119 07:00;20120119 08:00;0;0
H2S;uur;�g/m�;20120119 08:00;20120119 09:00;0;0
H2S;uur;�g/m�;20120119 09:00;20120119 10:00;0;0
H2S;uur;�g/m�;20120119 10:00;20120119 11:00;0;0
H2S;uur;�g/m�;20120119 11:00;20120119 12:00;0;0
H2S;uur;�g/m�;20120119 12:00;20120119 13:00;0;0
H2S;uur;�g/m�;20120119 13:00;20120119 14:00;;
H2S;uur;�g/m�;20120119 14:00;20120119 15:00;0;0
H2S;uur;�g/m�;20120119 15:00;20120119 16:00;0;0
H2S;uur;�g/m�;20120119 16:00;20120119 17:00;0;0
H2S;uur;�g/m�;20120119 17:00;20120119 18:00;0;0
H2S;uur;�g/m�;20120119 18:00;20120119 19:00;0;0
H2S;uur;�g/m�;20120119 19:00;20120119 20:00;0;0
H2S;uur;�g/m�;20120119 20:00;20120119 21:00;0;0
H2S;uur;�g/m�;20120119 21:00;20120119 22:00;0;0
H2S;uur;�g/m�;20120119 22:00;20120119 23:00;0;0
H2S;uur;�g/m�;20120119 23:00;20120120 00:00;0;0
H2S;uur;�g/m�;20120120 00:00;20120120 01:00;;0
H2S;uur;�g/m�;20120120 01:00;20120120 02:00;;0
H2S;uur;�g/m�;20120120 02:00;20120120 03:00;;0
H2S;uur;�g/m�;20120120 03:00;20120120 04:00;;0
H2S;uur;�g/m�;20120120 04:00;20120120 05:00;;0
H2S;uur;�g/m�;20120120 05:00;20120120 06:00;;0
H2S;uur;�g/m�;20120120 06:00;20120120 07:00;;0
H2S;uur;�g/m�;20120120 07:00;20120120 08:00;;0
H2S;uur;�g/m�;20120120 08:00;20120120 09:00;;0
H2S;uur;�g/m�;20120120 09:00;20120120 10:00;;0
H2S;uur;�g/m�;20120120 10:00;20120120 11:00;;0
H2S;uur;�g/m�;20120120 11:00;20120120 12:00;;0
H2S;uur;�g/m�;20120120 12:00;20120120 13:00;0;0
H2S;uur;�g/m�;20120120 13:00;20120120 14:00;0;0
H2S;uur;�g/m�;20120120 14:00;20120120 15:00;0;0
H2S;uur;�g/m�;20120120 15:00;20120120 16:00;3;0
H2S;uur;�g/m�;20120120 16:00;20120120 17:00;1;0